Regional Weather Roundup
Issued by NWS

Home | Current Version | Previous Version | Text Only | Print | Product List | Glossary On
Versions: 1 2 3 4 5 6 7 8 9 10 11 12 13 14 15 16 17 18 19 20 21 22 23 24 25 26 27 28 29 30 31 32 33 34 35 36 37 38 39 40 41 42 43 44 45 46 47 48 49 50
000
ASUS46 KSEW 231010
RWRWA

WASHINGTON REGIONAL WEATHER ROUNDUP
NATIONAL WEATHER SERVICE SEATTLE WA
300 AM PDT SUN APR 23 2017

NOTE:"FAIR" INDICATES FEW OR NO CLOUDS BELOW 12,000 FEET WITH NO
SIGNIFICANT WEATHER AND/OR OBSTRUCTIONS TO VISIBILITY.

WAZ507-509-555>559-231100-
SEATTLE, TACOMA, EVERETT, AND VICINITY

CITY           SKY/WX    TMP DP  RH WIND       PRES   REMARKS
EVERETT        FAIR      48  44  86 SE9       29.94F
BOEING FIELD   FAIR      49  46  90 SE3       29.96S
RENTON         FAIR      47  46  97 S3        29.96S
SEATAC AIRPORT FAIR      47  44  90 S3        29.95F
JBLM-MCCHORD   PTCLDY    41  41 100 CALM      29.95F FOG
PUYALLUP         N/A     43  43 100 CALM      29.95F
BREMERTON      NOT AVBL
JBLM-FT LEWIS  CLEAR     42  41  97 VRB1      29.98F
TACOMA NARROWS FAIR      44  44 100 S5        29.95F
$$

WAZ001-503-506-510-514-515-231100-
NORTH INTERIOR

CITY           SKY/WX    TMP DP  RH WIND       PRES   REMARKS
BELLINGHAM     CLOUDY    53  44  71 S13       29.91F
FRIDAY HARBOR  CLOUDY    50  48  93 CALM      29.93F
EASTSOUND      CLOUDY    50  46  87 S9        29.91S
PORT ANGELES   FAIR      45  43  93 SW5       29.92F
EDIZ HOOK      PTSUNNY   48  44  86 SW5       29.92F
PORT TOWNSEND  NOT AVBL
NAS WHIDBEY    CLOUDY    53  42  66 S13       29.96F
ARLINGTON      MOCLDY    48  37  66 SE7       29.97S
BURLINGTON     CLOUDY    52  45  76 SE9G16    29.93S
$$

WAZ020-022-039-040-504-511-512-231100-
SOUTHWEST INTERIOR

CITY           SKY/WX    TMP DP  RH WIND       PRES   REMARKS
SHELTON        CLOUDY    47  46  97 CALM      29.93F
OLYMPIA        FAIR      40  40 100 S3        29.96F FOG
CHEHALIS       MOCLDY    41  41 100 S3        29.96S
KELSO          NOT AVBL
VANCOUVER      FAIR      50  46  86 E3        29.96F
SCAPPOOSE, OR  CLOUDY    45  44  97 CALM      29.96F
PORTLAND, OR   CLOUDY    50  43  77 SE3       29.97F
$$

WAZ021-516-517-231100-
WASHINGTON COAST

CITY           SKY/WX    TMP DP  RH WIND       PRES   REMARKS
FORKS          CLOUDY    47  46  97 SW3       29.92F
HOQUIAM        CLOUDY    49  49 100 E6        29.94F
ASTORIA, OR    CLOUDY    48  44  86 SE5       29.94F
$$

WAZ019-023-024-040-567>569-231100-
CASCADE MOUNTAINS AND COLUMBIA GORGE

CITY           SKY/WX    TMP DP  RH WIND       PRES   REMARKS
STAMPEDE PASS  CLOUDY    35  35 100 CALM      29.90F
TROUTDALE, OR  FAIR      51  45  79 S5        29.97F
THE DALLES, OR FAIR      50  42  74 NW5       29.94F
$$

WAZ026-027-041>044-520-521-231100-
EAST SLOPES

CITY           SKY/WX    TMP DP  RH WIND       PRES   REMARKS
OMAK           FAIR      45  33  63 SW5       29.85S
WENATCHEE      FAIR      46  37  71 NW9       29.89F
ELLENSBURG     FAIR      43  37  79 NW13      29.90F
YAKIMA         FAIR      50  38  63 NW7       29.91F
SUNNYSIDE ARPT PTSUNNY   40  38  91 N3        29.90F
$$

WAZ028-034-035-231100-
COLUMBIA BASIN

CITY           SKY/WX    TMP DP  RH WIND       PRES   REMARKS
EPHRATA        FAIR      49  33  54 VRB7      29.85F
MOSES LAKE     FAIR      46  38  73 SW6       29.88S
PASCO          MOCLDY    53  39  59 CALM      29.91S
HERMISTON, OR  CLOUDY    52  42  69 SW6       29.91S
$$

WAZ036>038-231100-
NORTHEAST WASHINGTON

CITY           SKY/WX    TMP DP  RH WIND       PRES   REMARKS
SPOKANE GEIGER CLOUDY    45  39  79 SE7       29.86F
SPOKANE FELTS  FAIR      46  41  82 CALM      29.87F
FAIRCHILD AFB  FAIR      45  41  87 SE3       29.85F
COEURDALENE,ID FAIR      46  39  76 S7        29.87F
DEER PARK      FAIR      47  38  71 SE5       29.86F
$$

WAZ029>033-231100-
SOUTHEAST WASHINGTON

CITY           SKY/WX    TMP DP  RH WIND       PRES   REMARKS
PULLMAN        CLOUDY    46  42  86 S7        29.91S
LEWISTON, ID   CLOUDY    50  45  83 S3        29.91S
WALLA WALLA    CLOUDY    52  44  74 S7        29.92S
PENDLETON, OR  LGT RAIN  47  42  83 W10       29.91F
$$



USA.gov is the U.S. government's official web portal to all federal, state and local government web resources and services.